Regional Weather Roundup
Issued by NWS

Home | Current Version | Previous Version | Text Only | Print | Product List | Glossary Off
Versions: 1 2 3 4 5 6 7 8 9 10 11 12 13 14 15 16 17 18 19 20 21 22 23 24 25 26 27 28 29 30 31 32 33 34 35 36 37 38 39 40 41 42 43 44 45 46 47 48 49 50

000
ASUS45 KCYS 260410
RWRWY

WYOMING REGIONAL WEATHER ROUNDUP
NATIONAL WEATHER SERVICE CHEYENNE WY
1000 PM MDT WED MAR 25 2015

NOTE:  "FAIR" INDICATES FEW OR NO CLOUDS BELOW 12,000 FEET
WITH NO SIGNIFICANT WEATHER AND/OR OBSTRUCTIONS TO VISIBILITY.

WYZ001-260500-
YELLOWSTONE NATIONAL PARK

CITY           SKY/WX    TMP DP  RH WIND       PRES   REMARKS
LK YELLOWSTONE   N/A     23  18  81 CALM      30.34R
W YELLOWSTONE  NOT AVBL

$$
WYZ002>013-054>058-071-098>099-260500-
NORTHERN WYOMING

CITY           SKY/WX    TMP DP  RH WIND       PRES   REMARKS
JACKSON        FAIR      34  21  60 S7        30.34R WCI  28
CODY           FAIR      41  21  45 W18G28    30.18S
GREYBULL       CLOUDY    48  19  31 W14       30.16R
WORLAND        FAIR      36  24  62 SW6       30.17R WCI  31
SHERIDAN       CLOUDY    38  29  70 S7        30.15S WCI  33
BUFFALO        FAIR      34  26  72 W7        30.16S WCI  28
GILLETTE       FAIR      30  26  85 S5        30.16F WCI  25
HULETT         FAIR      32  27  80 S8        30.17F WCI  25
NEWCASTLE      FAIR      32  23  69 NE5       30.20F WCI  27

$$
WYZ014>020-022>026-101>103-260500-
CENTRAL WYOMING

CITY           SKY/WX    TMP DP  RH WIND       PRES   REMARKS
BIG PINEY      FAIR      27  15  61 N7        30.33R WCI  19
PINEDALE       FAIR      28  19  69 W3        30.33R
DUBOIS         FAIR      28  16  59 NW12G17   30.27R WCI  18
LANDER         FAIR      37  15  40 W7        30.22R WCI  32
RIVERTON       FAIR      40  16  37 NW25G37   30.20R WCI  29
CASPER         FAIR      31  24  75 W5        30.18S WCI  26
DOUGLAS        FAIR      28  26  92 SE6       30.20S WCI  22

$$
WYZ021-027>030-104>119-260500-
SOUTHERN WYOMING

CITY           SKY/WX    TMP DP  RH WIND       PRES   REMARKS
EVANSTON       FAIR      28  19  69 SW8       30.37R WCI  20
FORT BRIDGER   FAIR      32  20  61 W15       30.38R WCI  21
ROCK SPRINGS   FAIR      33  16  49 W14       30.31R WCI  23
DIXON          FAIR      26  20  79 CALM      30.30R
RAWLINS        FAIR      36  13  38 W18       30.22R WCI  26
SARATOGA       FAIR      30  18  59 MISG      30.24S
LARAMIE        MOCLDY    28  18  66 SW7       30.21F WCI  21
CHEYENNE       FAIR      27  24  89 SW10      30.23S WCI  17
TORRINGTON     FAIR      35  24  64 W3        30.22R
PINE BLUFFS    FAIR      28  27  93 SW3       30.25F

$$


USA.gov is the U.S. government's official web portal to all federal, state and local government web resources and services.